Year,Month,Day,Hour,Minute,Value (Times are PST for temperature in C)
2019,02,20,00,00,-1.80
2019,02,20,00,01,-1.80
2019,02,20,00,02,-1.90
2019,02,20,00,03,-2.00
2019,02,20,00,04,-2.00
2019,02,20,00,05,-2.10
2019,02,20,00,06,-2.10
2019,02,20,00,07,-2.10
2019,02,20,00,08,-2.20
2019,02,20,00,09,-2.20
2019,02,20,00,10,-2.30
2019,02,20,00,11,-2.30
2019,02,20,00,12,-2.40
2019,02,20,00,13,-2.40
2019,02,20,00,14,-2.50
2019,02,20,00,15,-2.60
2019,02,20,00,16,-2.60
2019,02,20,00,17,-2.70
2019,02,20,00,18,-2.80
2019,02,20,00,19,-2.80
2019,02,20,00,20,-2.90
2019,02,20,00,21,-3.00
2019,02,20,00,22,-3.10
2019,02,20,00,23,-3.20
2019,02,20,00,24,-3.30
2019,02,20,00,25,-3.40
2019,02,20,00,26,-3.50
2019,02,20,00,27,-3.40
2019,02,20,00,28,-3.40
2019,02,20,00,29,-3.40
2019,02,20,00,30,-3.40
2019,02,20,00,31,-3.50
2019,02,20,00,32,-3.50
2019,02,20,00,33,-3.60
2019,02,20,00,34,-3.60
2019,02,20,00,35,-3.70
2019,02,20,00,36,-3.80
2019,02,20,00,37,-3.90
2019,02,20,00,38,-3.90
2019,02,20,00,39,-4.00
2019,02,20,00,40,-4.00
2019,02,20,00,41,-4.00
2019,02,20,00,42,-4.00
2019,02,20,00,43,-3.90
2019,02,20,00,44,-3.80
2019,02,20,00,45,-3.70
2019,02,20,00,46,-3.70
2019,02,20,00,47,-3.70
2019,02,20,00,48,-3.70
2019,02,20,00,49,-3.70
2019,02,20,00,50,-3.70
2019,02,20,00,51,-3.70
2019,02,20,00,52,-3.90
2019,02,20,00,53,-3.90
2019,02,20,00,54,-3.90
2019,02,20,00,55,-4.00
2019,02,20,00,56,-4.00
2019,02,20,00,57,-4.00
2019,02,20,00,58,-4.00
2019,02,20,00,59,-4.00
2019,02,20,01,00,-4.10
2019,02,20,01,01,-4.10
2019,02,20,01,02,-4.10
2019,02,20,01,03,-4.00
2019,02,20,01,04,-3.70
2019,02,20,01,05,-3.50
2019,02,20,01,06,-3.40
2019,02,20,01,07,-3.40
2019,02,20,01,08,-3.40
2019,02,20,01,09,-3.40
2019,02,20,01,10,-3.40
2019,02,20,01,11,-3.40
2019,02,20,01,12,-3.50
2019,02,20,01,13,-3.50
2019,02,20,01,14,-3.60
2019,02,20,01,15,-3.60
2019,02,20,01,16,-3.70
2019,02,20,01,17,-3.70
2019,02,20,01,18,-3.70
2019,02,20,01,19,-3.70
2019,02,20,01,20,-3.70
2019,02,20,01,21,-3.70
2019,02,20,01,22,-3.70
2019,02,20,01,23,-3.70
2019,02,20,01,24,-3.70
2019,02,20,01,25,-3.70
2019,02,20,01,26,-3.70
2019,02,20,01,27,-3.70
2019,02,20,01,28,-3.70
2019,02,20,01,29,-3.70
2019,02,20,01,30,-3.70
2019,02,20,01,31,-3.70
2019,02,20,01,32,-3.80
2019,02,20,01,33,-3.80
2019,02,20,01,34,-3.70
2019,02,20,01,35,-3.70
2019,02,20,01,36,-3.70
2019,02,20,01,37,-3.70
2019,02,20,01,38,-3.70
2019,02,20,01,39,-3.70
2019,02,20,01,40,-3.60
2019,02,20,01,41,-3.50
2019,02,20,01,42,-3.40
2019,02,20,01,43,-3.40
2019,02,20,01,44,-3.40
2019,02,20,01,45,-3.40
2019,02,20,01,46,-3.50
2019,02,20,01,47,-3.60
2019,02,20,01,48,-3.60
2019,02,20,01,49,-3.70
2019,02,20,01,50,-3.70
2019,02,20,01,51,-3.80
2019,02,20,01,52,-3.80
2019,02,20,01,53,-3.90
2019,02,20,01,54,-3.90
2019,02,20,01,55,-3.90
2019,02,20,01,56,-3.90
2019,02,20,01,57,-3.90
2019,02,20,01,58,-4.00
2019,02,20,01,59,-4.00
2019,02,20,02,00,-4.10
2019,02,20,02,01,-4.20
2019,02,20,02,02,-4.30
2019,02,20,02,03,-4.30
2019,02,20,02,04,-4.40
2019,02,20,02,05,-4.40
2019,02,20,02,06,-4.40
2019,02,20,02,07,-4.50
2019,02,20,02,08,-4.50
2019,02,20,02,09,-4.60
2019,02,20,02,10,-4.60
2019,02,20,02,11,-4.70
2019,02,20,02,12,-4.70
2019,02,20,02,13,-4.80
2019,02,20,02,14,-4.80
2019,02,20,02,15,-4.80
2019,02,20,02,16,-4.90
2019,02,20,02,17,-4.90
2019,02,20,02,18,-5.00
2019,02,20,02,19,-5.00
2019,02,20,02,20,-5.10
2019,02,20,02,21,-5.10
2019,02,20,02,22,-5.20
2019,02,20,02,23,-5.20
2019,02,20,02,24,-5.30
2019,02,20,02,25,-5.30
2019,02,20,02,26,-5.40
2019,02,20,02,27,-5.40
2019,02,20,02,28,-5.50
2019,02,20,02,29,-5.50
2019,02,20,02,30,-5.50
2019,02,20,02,31,-5.60
2019,02,20,02,32,-5.60
2019,02,20,02,33,-5.70
2019,02,20,02,34,-5.80
2019,02,20,02,35,-5.80
2019,02,20,02,36,-5.90
2019,02,20,02,37,-5.90
2019,02,20,02,38,-5.90
2019,02,20,02,39,-6.00
2019,02,20,02,40,-6.00
2019,02,20,02,41,-6.10
2019,02,20,02,42,-6.10
2019,02,20,02,43,-6.10
2019,02,20,02,44,-6.10
2019,02,20,02,45,-6.10
2019,02,20,02,46,-6.10
2019,02,20,02,47,-6.20
2019,02,20,02,48,-6.20
2019,02,20,02,49,-6.30
2019,02,20,02,50,-6.30
2019,02,20,02,51,-6.30
2019,02,20,02,52,-6.40
2019,02,20,02,53,-6.40
2019,02,20,02,54,-6.40
2019,02,20,02,55,-6.40
2019,02,20,02,56,-6.50
2019,02,20,02,57,-6.50
2019,02,20,02,58,-6.40
2019,02,20,02,59,-6.40
2019,02,20,03,00,-6.40
2019,02,20,03,01,-6.40
2019,02,20,03,02,-6.40
2019,02,20,03,03,-6.40
2019,02,20,03,04,-6.40
2019,02,20,03,05,-6.40
2019,02,20,03,06,-6.40
2019,02,20,03,07,-6.40
2019,02,20,03,08,-6.30
2019,02,20,03,09,-6.20
2019,02,20,03,10,-6.20
2019,02,20,03,11,-6.20
2019,02,20,03,12,-6.20
2019,02,20,03,13,-6.30
2019,02,20,03,14,-6.30
2019,02,20,03,15,-6.30
2019,02,20,03,16,-6.30
2019,02,20,03,17,-6.30
2019,02,20,03,18,-6.30
2019,02,20,03,19,-6.30
2019,02,20,03,20,-6.30
2019,02,20,03,21,-6.30
2019,02,20,03,22,-6.20
2019,02,20,03,23,-6.20
2019,02,20,03,24,-6.20
2019,02,20,03,25,-6.20
2019,02,20,03,26,-6.20
2019,02,20,03,27,-6.20
2019,02,20,03,28,-6.20
2019,02,20,03,29,-6.20
2019,02,20,03,30,-6.20
2019,02,20,03,31,-6.30
2019,02,20,03,32,-6.20
2019,02,20,03,33,-6.20
2019,02,20,03,34,-6.20
2019,02,20,03,35,-6.30
2019,02,20,03,36,-6.20
2019,02,20,03,37,-6.20
2019,02,20,03,38,-6.30
2019,02,20,03,39,-6.30
2019,02,20,03,40,-6.30
2019,02,20,03,41,-6.30
2019,02,20,03,42,-6.20
2019,02,20,03,43,-6.20
2019,02,20,03,44,-6.20
2019,02,20,03,45,-6.20
2019,02,20,03,46,-6.20
2019,02,20,03,47,-6.20
2019,02,20,03,48,-6.20
2019,02,20,03,49,-6.20
2019,02,20,03,50,-6.20
2019,02,20,03,51,-6.20
2019,02,20,03,52,-6.20
2019,02,20,03,53,-6.10
2019,02,20,03,54,-6.10
2019,02,20,03,55,-6.10
2019,02,20,03,56,-6.10
2019,02,20,03,57,-6.10
2019,02,20,03,58,-6.10
2019,02,20,03,59,-6.10
2019,02,20,04,00,-6.00
2019,02,20,04,01,-6.00
2019,02,20,04,02,-6.00
2019,02,20,04,03,-6.00
2019,02,20,04,04,-6.00
2019,02,20,04,05,-5.90
2019,02,20,04,06,-5.90
2019,02,20,04,07,-5.90
2019,02,20,04,08,-5.80
2019,02,20,04,09,-5.80
2019,02,20,04,10,-5.70
2019,02,20,04,11,-5.70
2019,02,20,04,12,-5.50
2019,02,20,04,13,-5.50
2019,02,20,04,14,-5.50
2019,02,20,04,15,-5.50
2019,02,20,04,16,-5.50
2019,02,20,04,17,-5.50
2019,02,20,04,18,-5.60
2019,02,20,04,19,-5.60
2019,02,20,04,20,-5.70
2019,02,20,04,21,-5.70
2019,02,20,04,22,-5.80
2019,02,20,04,23,-5.80
2019,02,20,04,24,-5.80
2019,02,20,04,25,-5.90
2019,02,20,04,26,-5.90
2019,02,20,04,27,-5.90
2019,02,20,04,28,-5.90
2019,02,20,04,29,-5.90
2019,02,20,04,30,-6.00
2019,02,20,04,31,-6.00
2019,02,20,04,32,-6.00
2019,02,20,04,33,-6.00
2019,02,20,04,34,-6.10
2019,02,20,04,35,-6.10
2019,02,20,04,36,-6.10
2019,02,20,04,37,-6.10
2019,02,20,04,38,-6.20
2019,02,20,04,39,-6.20
2019,02,20,04,40,-6.20
2019,02,20,04,41,-6.20
2019,02,20,04,42,-6.10
2019,02,20,04,43,-6.10
2019,02,20,04,44,-6.10
2019,02,20,04,45,-6.10
2019,02,20,04,46,-6.00
2019,02,20,04,47,-5.90
2019,02,20,04,48,-5.90
2019,02,20,04,49,-5.80
2019,02,20,04,50,-5.70
2019,02,20,04,51,-5.60
2019,02,20,04,52,-5.40
2019,02,20,04,53,-5.20
2019,02,20,04,54,-4.90
2019,02,20,04,55,-4.70
2019,02,20,04,56,-4.40
2019,02,20,04,57,-4.10
2019,02,20,04,58,-3.90
2019,02,20,04,59,-3.60
2019,02,20,05,00,-3.40
2019,02,20,05,01,-3.20
2019,02,20,05,02,-3.00
2019,02,20,05,03,-2.80
2019,02,20,05,04,-2.70
2019,02,20,05,05,-2.60
2019,02,20,05,06,-2.50
2019,02,20,05,07,-2.50
2019,02,20,05,08,-2.40
2019,02,20,05,09,-2.40
2019,02,20,05,10,-2.40
2019,02,20,05,11,-2.40
2019,02,20,05,12,-2.40
2019,02,20,05,13,-2.40
2019,02,20,05,14,-2.40
2019,02,20,05,15,-2.40
2019,02,20,05,16,-2.40
2019,02,20,05,17,-2.40
2019,02,20,05,18,-2.40
2019,02,20,05,19,-2.40
2019,02,20,05,20,-2.40
2019,02,20,05,21,-2.50
2019,02,20,05,22,-2.60
2019,02,20,05,23,-2.60
2019,02,20,05,24,-2.60
2019,02,20,05,25,-2.70
2019,02,20,05,26,-2.70
2019,02,20,05,27,-2.70
2019,02,20,05,28,-2.80
2019,02,20,05,29,-2.80
2019,02,20,05,30,-2.90
2019,02,20,05,31,-2.90
2019,02,20,05,32,-2.90
2019,02,20,05,33,-2.90
2019,02,20,05,34,-2.90
2019,02,20,05,35,-3.00
2019,02,20,05,36,-3.00
2019,02,20,05,37,-3.00
2019,02,20,05,38,-3.00
2019,02,20,05,39,-3.10
2019,02,20,05,40,-3.10
2019,02,20,05,41,-3.20
2019,02,20,05,42,-3.30
2019,02,20,05,43,-3.40
2019,02,20,05,44,-3.40
2019,02,20,05,45,-3.50
2019,02,20,05,46,-3.50
2019,02,20,05,47,-3.60
2019,02,20,05,48,-3.60
2019,02,20,05,49,-3.60
2019,02,20,05,50,-3.70
2019,02,20,05,51,-3.70
2019,02,20,05,52,-3.70
2019,02,20,05,53,-3.80
2019,02,20,05,54,-3.90
2019,02,20,05,55,-4.00
2019,02,20,05,56,-4.00
2019,02,20,05,57,-4.10
2019,02,20,05,58,-4.10
2019,02,20,05,59,-4.20
2019,02,20,06,00,-4.30
2019,02,20,06,01,-4.30
2019,02,20,06,02,-4.30
2019,02,20,06,03,-4.30
2019,02,20,06,04,-4.30
2019,02,20,06,05,-4.30
2019,02,20,06,06,-4.30
2019,02,20,06,07,-4.30
2019,02,20,06,08,-4.30
2019,02,20,06,09,-4.30
2019,02,20,06,10,-4.30
2019,02,20,06,11,-4.20
2019,02,20,06,12,-4.20
2019,02,20,06,13,-4.20
2019,02,20,06,14,-4.20
2019,02,20,06,15,-4.20
2019,02,20,06,16,-4.10
2019,02,20,06,17,-4.10
2019,02,20,06,18,-4.10
2019,02,20,06,19,-4.10
2019,02,20,06,20,-4.10
2019,02,20,06,21,-4.00
2019,02,20,06,22,-4.00
2019,02,20,06,23,-4.00
2019,02,20,06,24,-4.00
2019,02,20,06,25,-4.00
2019,02,20,06,26,-3.90
2019,02,20,06,27,-3.70
2019,02,20,06,28,-3.60
2019,02,20,06,29,-3.50
2019,02,20,06,30,-3.20
2019,02,20,06,31,-3.10
2019,02,20,06,32,-2.90
2019,02,20,06,33,-2.80
2019,02,20,06,34,-2.80
2019,02,20,06,35,-2.70
2019,02,20,06,36,-2.70
2019,02,20,06,37,-2.60
2019,02,20,06,38,-2.50
2019,02,20,06,39,-2.40
2019,02,20,06,40,-2.30
2019,02,20,06,41,-2.30
2019,02,20,06,42,-2.30
2019,02,20,06,43,-2.30
2019,02,20,06,44,-2.30
2019,02,20,06,45,-2.30
2019,02,20,06,46,-2.30
2019,02,20,06,47,-2.30
2019,02,20,06,48,-2.40
2019,02,20,06,49,-2.50
2019,02,20,06,50,-2.50
2019,02,20,06,51,-2.60
2019,02,20,06,52,-2.70
2019,02,20,06,53,-2.80
2019,02,20,06,54,-2.80
2019,02,20,06,55,-2.90
2019,02,20,06,56,-2.80
2019,02,20,06,57,-2.80
2019,02,20,06,58,-2.70
2019,02,20,06,59,-2.70
2019,02,20,07,00,-2.60
2019,02,20,07,01,-2.50
2019,02,20,07,02,-2.50
2019,02,20,07,03,-2.40
2019,02,20,07,04,-2.30
2019,02,20,07,05,-2.20
2019,02,20,07,06,-2.10
2019,02,20,07,07,-1.90
2019,02,20,07,08,-1.80
2019,02,20,07,09,-1.60
2019,02,20,07,10,-1.50
2019,02,20,07,11,-1.40
2019,02,20,07,12,-1.20
2019,02,20,07,13,-1.10
2019,02,20,07,14,-0.90
2019,02,20,07,15,-0.80
2019,02,20,07,16,-0.60
2019,02,20,07,17,-0.50
2019,02,20,07,18,-0.30
2019,02,20,07,19,-0.20
2019,02,20,07,20,-0.10
2019,02,20,07,21,-15.80
2019,02,20,07,22,-17.70
2019,02,20,07,23,-17.70
2019,02,20,07,24,-17.70
2019,02,20,07,25,-17.70
2019,02,20,07,26,-17.70
2019,02,20,07,27,-17.70
2019,02,20,07,28,-17.70
2019,02,20,07,29,-17.70
2019,02,20,07,30,-17.70
2019,02,20,07,31,-17.80
2019,02,20,07,32,-3.90
2019,02,20,07,33,-0.10
2019,02,20,07,34,-0.30
2019,02,20,07,35,-0.30
2019,02,20,07,36,-0.50
2019,02,20,07,37,-0.50
2019,02,20,07,38,-0.60
2019,02,20,07,39,-0.70
2019,02,20,07,40,-0.70
2019,02,20,07,41,-0.80
2019,02,20,07,42,-0.80
2019,02,20,07,43,-0.80
2019,02,20,07,44,-0.80
2019,02,20,07,45,-0.80
2019,02,20,07,46,-0.80
2019,02,20,07,47,-0.80
2019,02,20,07,48,-0.80
2019,02,20,07,49,-0.80
2019,02,20,07,50,-0.80
2019,02,20,07,51,-0.80
2019,02,20,07,52,-0.80
2019,02,20,07,53,-0.80
2019,02,20,07,54,-0.80
2019,02,20,07,55,-0.80
2019,02,20,07,56,-1.00
2019,02,20,07,57,-1.00
2019,02,20,07,58,-1.10
2019,02,20,07,59,-1.20
2019,02,20,08,00,-1.20
2019,02,20,08,01,-1.20
2019,02,20,08,02,-1.20
2019,02,20,08,03,-1.30
2019,02,20,08,04,-1.30
2019,02,20,08,05,-1.30
2019,02,20,08,06,-1.30
2019,02,20,08,07,-1.40
2019,02,20,08,08,-1.40
2019,02,20,08,09,-1.40
2019,02,20,08,10,-1.40
2019,02,20,08,11,-1.50
2019,02,20,08,12,-1.50
2019,02,20,08,13,-1.50
2019,02,20,08,14,-1.50
2019,02,20,08,15,-1.60
2019,02,20,08,16,-1.60
2019,02,20,08,17,-1.60
2019,02,20,08,18,-1.60
2019,02,20,08,19,-1.70
2019,02,20,08,20,-1.70
2019,02,20,08,21,-1.80
2019,02,20,08,22,-1.80
2019,02,20,08,23,-1.80
2019,02,20,08,24,-1.90
2019,02,20,08,25,-1.90
2019,02,20,08,26,-2.00
2019,02,20,08,27,-2.10
2019,02,20,08,28,-2.10
2019,02,20,08,29,-2.20
2019,02,20,08,30,-2.30
2019,02,20,08,31,-2.30
2019,02,20,08,32,-2.40
2019,02,20,08,33,-2.50
2019,02,20,08,34,-2.50
2019,02,20,08,35,-2.60
2019,02,20,08,36,-2.70
2019,02,20,08,37,-2.80
2019,02,20,08,38,-2.80
2019,02,20,08,39,-2.90
2019,02,20,08,40,-3.00
2019,02,20,08,41,-3.00
2019,02,20,08,42,-3.10
2019,02,20,08,43,-3.20
2019,02,20,08,44,-3.30
2019,02,20,08,45,-3.40
2019,02,20,08,46,-3.40
2019,02,20,08,47,-3.40
2019,02,20,08,48,-3.50
2019,02,20,08,49,-3.50
2019,02,20,08,50,-3.50
2019,02,20,08,51,-3.50
2019,02,20,08,52,-3.60
2019,02,20,08,53,-3.60
2019,02,20,08,54,-3.70
2019,02,20,08,55,-3.90
2019,02,20,08,56,-4.00
2019,02,20,08,57,-4.10
2019,02,20,08,58,-4.10
2019,02,20,08,59,-4.20
2019,02,20,09,00,-4.30
2019,02,20,09,01,-4.40
2019,02,20,09,02,-4.40
2019,02,20,09,03,-4.50
2019,02,20,09,04,-4.60
2019,02,20,09,05,-4.70
2019,02,20,09,06,-4.80
2019,02,20,09,07,-4.90
2019,02,20,09,08,-5.00
2019,02,20,09,09,-5.00
2019,02,20,09,10,-5.10
2019,02,20,09,11,-5.20
2019,02,20,09,12,-5.30
2019,02,20,09,13,-5.40
2019,02,20,09,14,-5.40
2019,02,20,09,15,-5.50
2019,02,20,09,16,-5.50
2019,02,20,09,17,-5.60
2019,02,20,09,18,-5.70
2019,02,20,09,19,-5.70
2019,02,20,09,20,-5.80
2019,02,20,09,21,-5.80
2019,02,20,09,22,-5.80
2019,02,20,09,23,-5.90
2019,02,20,09,24,-6.10
2019,02,20,09,25,-6.20
2019,02,20,09,26,-6.20
2019,02,20,09,27,-6.30
2019,02,20,09,28,-6.30
2019,02,20,09,29,-6.40
2019,02,20,09,30,-6.40
2019,02,20,09,31,-6.50
2019,02,20,09,32,-6.50
2019,02,20,09,33,-6.60
2019,02,20,09,34,-6.60
2019,02,20,09,35,-6.60
2019,02,20,09,36,-6.70
2019,02,20,09,37,-6.70
2019,02,20,09,38,-6.80
2019,02,20,09,39,-6.80
2019,02,20,09,40,-6.80
2019,02,20,09,41,-6.90
2019,02,20,09,42,-6.90
2019,02,20,09,43,-6.90
2019,02,20,09,44,-6.90
2019,02,20,09,45,-6.90
2019,02,20,09,46,-6.90
2019,02,20,09,47,-6.90
2019,02,20,09,48,-6.70
2019,02,20,09,49,-6.60
2019,02,20,09,50,-6.50
2019,02,20,09,51,-6.30
2019,02,20,09,52,-6.20
2019,02,20,09,53,-6.10
2019,02,20,09,54,-6.10
2019,02,20,09,55,-5.90
2019,02,20,09,56,-5.90
2019,02,20,09,57,-5.80
2019,02,20,09,58,-5.70
2019,02,20,09,59,-5.70
2019,02,20,10,00,-5.70
2019,02,20,10,01,-5.60
2019,02,20,10,02,-5.60
2019,02,20,10,03,-5.60
2019,02,20,10,04,-5.60
2019,02,20,10,05,-5.60
2019,02,20,10,06,-5.70
2019,02,20,10,07,-5.70
2019,02,20,10,08,-5.70
2019,02,20,10,09,-5.80
2019,02,20,10,10,-5.80
2019,02,20,10,11,-5.80
2019,02,20,10,12,-5.70
2019,02,20,10,13,-5.70
2019,02,20,10,14,-5.70
2019,02,20,10,15,-5.70
2019,02,20,10,16,-5.70
2019,02,20,10,17,-5.70
2019,02,20,10,18,-5.70
2019,02,20,10,19,-5.70
2019,02,20,10,20,-5.70
2019,02,20,10,21,-5.70
2019,02,20,10,22,-5.70
2019,02,20,10,23,-5.70
2019,02,20,10,24,-5.70
2019,02,20,10,25,-5.70
2019,02,20,10,26,-5.70
2019,02,20,10,27,-5.70
2019,02,20,10,28,-5.70
2019,02,20,10,29,-5.80
2019,02,20,10,30,-5.90
2019,02,20,10,31,-5.90
2019,02,20,10,32,-6.00
2019,02,20,10,33,-6.10
2019,02,20,10,34,-6.10
2019,02,20,10,35,-6.20
2019,02,20,10,36,-6.30
2019,02,20,10,37,-6.30
2019,02,20,10,38,-6.40
2019,02,20,10,39,-6.40
2019,02,20,10,40,-6.40
2019,02,20,10,41,-6.40
2019,02,20,10,42,-6.40
2019,02,20,10,43,-6.40
2019,02,20,10,44,-6.40
2019,02,20,10,45,-6.50
2019,02,20,10,46,-6.60
2019,02,20,10,47,-6.70
2019,02,20,10,48,-6.70
2019,02,20,10,49,-6.80
2019,02,20,10,50,-6.80
2019,02,20,10,51,-6.80
2019,02,20,10,52,-6.80
2019,02,20,10,53,-6.80
2019,02,20,10,54,-6.90
2019,02,20,10,55,-6.90
2019,02,20,10,56,-6.90
2019,02,20,10,57,-6.90
2019,02,20,10,58,-6.90
2019,02,20,10,59,-7.00
2019,02,20,11,00,-7.00
2019,02,20,11,01,-7.00
2019,02,20,11,02,-7.00
2019,02,20,11,03,-7.00
2019,02,20,11,04,-6.90
2019,02,20,11,05,-6.80
2019,02,20,11,06,-6.70
2019,02,20,11,07,-6.70
2019,02,20,11,08,-6.70
2019,02,20,11,09,-6.70
2019,02,20,11,10,-6.70
2019,02,20,11,11,-6.80
2019,02,20,11,12,-6.80
2019,02,20,11,13,-6.80
2019,02,20,11,14,-6.80
2019,02,20,11,15,-6.80
2019,02,20,11,16,-6.90
2019,02,20,11,17,-6.90
2019,02,20,11,18,-7.00
2019,02,20,11,19,-7.00
2019,02,20,11,20,-7.00
2019,02,20,11,21,-7.00
2019,02,20,11,22,-7.00
2019,02,20,11,23,-7.00
2019,02,20,11,24,-6.90
2019,02,20,11,25,-6.80
2019,02,20,11,26,-6.70
2019,02,20,11,27,-6.60
2019,02,20,11,28,-6.60
2019,02,20,11,29,-6.50
2019,02,20,11,30,-6.40
2019,02,20,11,31,-6.30
2019,02,20,11,32,-6.10
2019,02,20,11,33,-6.00
2019,02,20,11,34,-5.80
2019,02,20,11,35,-5.60
2019,02,20,11,36,-5.40
2019,02,20,11,37,-5.30
2019,02,20,11,38,-5.20
2019,02,20,11,39,-5.10
2019,02,20,11,40,-5.00
2019,02,20,11,41,-4.80
2019,02,20,11,42,-4.70
2019,02,20,11,43,-4.50
2019,02,20,11,44,-4.30
2019,02,20,11,45,-4.20
2019,02,20,11,46,-4.00
2019,02,20,11,47,-3.80
2019,02,20,11,48,-3.70
2019,02,20,11,49,-3.60
2019,02,20,11,50,-3.50
2019,02,20,11,51,-3.30
2019,02,20,11,52,-3.10
2019,02,20,11,53,-3.00
2019,02,20,11,54,-2.90
2019,02,20,11,55,-2.80
2019,02,20,11,56,-2.70
2019,02,20,11,57,-2.60
2019,02,20,11,58,-2.60
2019,02,20,11,59,-2.50
2019,02,20,12,00,-2.50
2019,02,20,12,01,-2.40
2019,02,20,12,02,-2.30
2019,02,20,12,03,-2.20
2019,02,20,12,04,-2.10
2019,02,20,12,05,-1.90
2019,02,20,12,06,-1.80
2019,02,20,12,07,-1.60
2019,02,20,12,08,-1.50
2019,02,20,12,09,-1.40
2019,02,20,12,10,-1.30
2019,02,20,12,11,-1.30
2019,02,20,12,12,-1.30
2019,02,20,12,13,-1.30
2019,02,20,12,14,-1.30
2019,02,20,12,15,-1.20
2019,02,20,12,16,-1.20
2019,02,20,12,17,-1.20
2019,02,20,12,18,-1.20
2019,02,20,12,19,-1.30
2019,02,20,12,20,-1.30
2019,02,20,12,21,-1.40
2019,02,20,12,22,-1.40
2019,02,20,12,23,-1.40
2019,02,20,12,24,-1.30
2019,02,20,12,25,-1.20
2019,02,20,12,26,-1.00
2019,02,20,12,27,-0.80
2019,02,20,12,28,-0.70
2019,02,20,12,29,-0.50
2019,02,20,12,30,-0.30
2019,02,20,12,31,-0.30
2019,02,20,12,32,-1.60
2019,02,20,12,33,-17.80
2019,02,20,12,34,-17.70
2019,02,20,12,35,-17.60
2019,02,20,12,36,-17.60
2019,02,20,12,37,-17.60
2019,02,20,12,38,-17.50
2019,02,20,12,39,-17.50
2019,02,20,12,40,-17.50
2019,02,20,12,41,-17.50
2019,02,20,12,42,-17.50
2019,02,20,12,43,-17.40
2019,02,20,12,44,-17.40
2019,02,20,12,45,-17.40
2019,02,20,12,46,-17.40
2019,02,20,12,47,-17.50
2019,02,20,12,48,-17.60
2019,02,20,12,49,-17.70
2019,02,20,12,50,-17.70
2019,02,20,12,51,-3.40
2019,02,20,12,52,-0.30
2019,02,20,12,53,-0.60
2019,02,20,12,54,-0.80
2019,02,20,12,55,-1.00
2019,02,20,12,56,-1.20
2019,02,20,12,57,-1.30
2019,02,20,12,58,-1.50
2019,02,20,12,59,-1.60
2019,02,20,13,00,-1.60
2019,02,20,13,01,-1.60
2019,02,20,13,02,-1.60
2019,02,20,13,03,-1.60
2019,02,20,13,04,-1.60
2019,02,20,13,05,-1.60
2019,02,20,13,06,-1.50
2019,02,20,13,07,-1.50
2019,02,20,13,08,-1.40
2019,02,20,13,09,-1.30
2019,02,20,13,10,-1.20
2019,02,20,13,11,-1.10
2019,02,20,13,12,-1.00
2019,02,20,13,13,-0.90
2019,02,20,13,14,-0.80
2019,02,20,13,15,-0.80
2019,02,20,13,16,-0.90
2019,02,20,13,17,-0.90
2019,02,20,13,18,-0.90
2019,02,20,13,19,-0.90
2019,02,20,13,20,-0.90
2019,02,20,13,21,-0.80
2019,02,20,13,22,-0.80
2019,02,20,13,23,-0.70
2019,02,20,13,24,-0.70
2019,02,20,13,25,-0.60
2019,02,20,13,26,-0.50
2019,02,20,13,27,-0.40
2019,02,20,13,28,-0.20
2019,02,20,13,29,-12.50
2019,02,20,13,30,-17.70
2019,02,20,13,31,-17.60
2019,02,20,13,32,-17.40
2019,02,20,13,33,-17.40
2019,02,20,13,34,-17.20
2019,02,20,13,35,-17.10
2019,02,20,13,36,-17.10
2019,02,20,13,37,-17.00
2019,02,20,13,38,-17.00
2019,02,20,13,39,-16.90
2019,02,20,13,40,-16.90
2019,02,20,13,41,-16.80
2019,02,20,13,42,-16.80
2019,02,20,13,43,-16.70
2019,02,20,13,44,-16.70
2019,02,20,13,45,-16.60
2019,02,20,13,46,-16.60
2019,02,20,13,47,-16.60
2019,02,20,13,48,-16.60
2019,02,20,13,49,-16.50
2019,02,20,13,50,-16.50
2019,02,20,13,51,-16.40
2019,02,20,13,52,-16.30
2019,02,20,13,53,-16.20
2019,02,20,13,54,-16.20
2019,02,20,13,55,-16.20
2019,02,20,13,56,-16.30
2019,02,20,13,57,-16.50
2019,02,20,13,58,-16.60
2019,02,20,13,59,-16.70
2019,02,20,14,00,-16.80
2019,02,20,14,01,-16.80
2019,02,20,14,02,-16.70
2019,02,20,14,03,-16.70
2019,02,20,14,04,-16.60
2019,02,20,14,05,-16.50
2019,02,20,14,06,-16.50
2019,02,20,14,07,-16.40
2019,02,20,14,08,-16.30
2019,02,20,14,09,-16.20
2019,02,20,14,10,-16.20
2019,02,20,14,11,-16.20
2019,02,20,14,12,-16.20
2019,02,20,14,13,-16.20
2019,02,20,14,14,-16.30
2019,02,20,14,15,-16.30
2019,02,20,14,16,-16.20
2019,02,20,14,17,-16.20
2019,02,20,14,18,-16.10
2019,02,20,14,19,-16.00
2019,02,20,14,20,-15.90
2019,02,20,14,21,-15.80
2019,02,20,14,22,-15.80
2019,02,20,14,23,-15.70
2019,02,20,14,24,-15.70
2019,02,20,14,25,-15.60
2019,02,20,14,26,-15.50
2019,02,20,14,27,-15.50
2019,02,20,14,28,-15.40
2019,02,20,14,29,-15.30
2019,02,20,14,30,-15.30
2019,02,20,14,31,-15.30
2019,02,20,14,32,-15.30
2019,02,20,14,33,-15.30
2019,02,20,14,34,-15.30
2019,02,20,14,35,-15.30
2019,02,20,14,36,-15.20
2019,02,20,14,37,-15.10
2019,02,20,14,38,-15.00
2019,02,20,14,39,-14.90
2019,02,20,14,40,-14.80
2019,02,20,14,41,-14.70
2019,02,20,14,42,-14.60
2019,02,20,14,43,-14.50
2019,02,20,14,44,-14.50
2019,02,20,14,45,-14.50
2019,02,20,14,46,-14.60
2019,02,20,14,47,-14.50
2019,02,20,14,48,-14.50
2019,02,20,14,49,-14.40
2019,02,20,14,50,-14.30
2019,02,20,14,51,-14.30
2019,02,20,14,52,-14.20
2019,02,20,14,53,-14.20
2019,02,20,14,54,-14.20
2019,02,20,14,55,-14.10
2019,02,20,14,56,-14.10
2019,02,20,14,57,-14.10
2019,02,20,14,58,-14.10
2019,02,20,14,59,-14.10
2019,02,20,15,00,-14.20
2019,02,20,15,01,-14.20
2019,02,20,15,02,-14.20
2019,02,20,15,03,-14.20
2019,02,20,15,04,-14.20
2019,02,20,15,05,-14.20
2019,02,20,15,06,-14.20
2019,02,20,15,07,-14.20
2019,02,20,15,08,-14.20
2019,02,20,15,09,-14.10
2019,02,20,15,10,-14.10
2019,02,20,15,11,-14.10
2019,02,20,15,12,-14.10
2019,02,20,15,13,-14.10
2019,02,20,15,14,-14.10
2019,02,20,15,15,-14.10
2019,02,20,15,16,-14.10
2019,02,20,15,17,-14.10
2019,02,20,15,18,-14.10
2019,02,20,15,19,-14.10
2019,02,20,15,20,-14.10
2019,02,20,15,21,-14.10
2019,02,20,15,22,-14.20
2019,02,20,15,23,-14.40
2019,02,20,15,24,-14.60
2019,02,20,15,25,-14.80
2019,02,20,15,26,-15.00
2019,02,20,15,27,-15.10
2019,02,20,15,28,-15.20
2019,02,20,15,29,-15.40
2019,02,20,15,30,-15.60
2019,02,20,15,31,-15.70
2019,02,20,15,32,-15.90
2019,02,20,15,33,-16.00
2019,02,20,15,34,-16.10
2019,02,20,15,35,-16.20
2019,02,20,15,36,-16.30
2019,02,20,15,37,-16.40
2019,02,20,15,38,-16.50
2019,02,20,15,39,-16.50
2019,02,20,15,40,-16.60
2019,02,20,15,41,-16.60
2019,02,20,15,42,-16.70
2019,02,20,15,43,-16.70
2019,02,20,15,44,-16.70
2019,02,20,15,45,-16.80
2019,02,20,15,46,-16.80
2019,02,20,15,47,-16.80
2019,02,20,15,48,-16.80
2019,02,20,15,49,-16.80
2019,02,20,15,50,-16.80
2019,02,20,15,51,-16.80
2019,02,20,15,52,-16.80
2019,02,20,15,53,-16.80
2019,02,20,15,54,-16.80
2019,02,20,15,55,-16.80
2019,02,20,15,56,-16.80
2019,02,20,15,57,-16.90
2019,02,20,15,58,-16.90
2019,02,20,15,59,-16.90
2019,02,20,16,00,-16.90
2019,02,20,16,01,-16.90
2019,02,20,16,02,-16.90
2019,02,20,16,03,-16.90
2019,02,20,16,04,-16.90
2019,02,20,16,05,-16.90
2019,02,20,16,06,-17.00
2019,02,20,16,07,-16.90
2019,02,20,16,08,-16.90
2019,02,20,16,09,-16.90
2019,02,20,16,10,-16.90
2019,02,20,16,11,-16.90
2019,02,20,16,12,-16.90
2019,02,20,16,13,-16.90
2019,02,20,16,14,-16.90
2019,02,20,16,15,-16.90
2019,02,20,16,16,-16.90
2019,02,20,16,17,-16.90
2019,02,20,16,18,-17.00
2019,02,20,16,19,-17.00
2019,02,20,16,20,-17.00
2019,02,20,16,21,-17.00
2019,02,20,16,22,-17.00
2019,02,20,16,23,-17.00
2019,02,20,16,24,-17.00
2019,02,20,16,25,-17.00
2019,02,20,16,26,-17.00
2019,02,20,16,27,-17.00
2019,02,20,16,28,-17.00
2019,02,20,16,29,-17.00
2019,02,20,16,30,-17.00
2019,02,20,16,31,-17.00
2019,02,20,16,32,-17.00
2019,02,20,16,33,-17.00
2019,02,20,16,34,-17.10
2019,02,20,16,35,-17.10
2019,02,20,16,36,-17.10
2019,02,20,16,37,-17.10
2019,02,20,16,38,-17.10
2019,02,20,16,39,-17.10
2019,02,20,16,40,-17.10
2019,02,20,16,41,-17.20
2019,02,20,16,42,-17.20
2019,02,20,16,43,-17.30
2019,02,20,16,44,-17.30
2019,02,20,16,45,-17.30
2019,02,20,16,46,-17.40
2019,02,20,16,47,-17.40
2019,02,20,16,48,-17.50
2019,02,20,16,49,-17.50
2019,02,20,16,50,-17.50
2019,02,20,16,51,-17.60
2019,02,20,16,52,-17.60
2019,02,20,16,53,-17.60
2019,02,20,16,54,-17.60
2019,02,20,16,55,-17.70
2019,02,20,16,56,-17.70
2019,02,20,16,57,-17.70
2019,02,20,16,58,-17.70
2019,02,20,16,59,-17.70
2019,02,20,17,00,-17.70
2019,02,20,17,01,-17.70
2019,02,20,17,02,-17.70
2019,02,20,17,03,-17.80
2019,02,20,17,04,-17.80
2019,02,20,17,05,-17.80
2019,02,20,17,06,-17.80
2019,02,20,17,07,-5.30
2019,02,20,17,08,-0.10